Regional Weather Roundup
Issued by NWS

Home | Current Version | Previous Version | Text Only | Print | Product List | Glossary Off
Versions: 1 2 3 4 5 6 7 8 9 10 11 12 13 14 15 16 17 18 19 20 21 22 23 24 25 26 27 28 29 30 31 32 33 34 35 36 37 38 39 40 41 42 43 44 45 46 47 48 49 50

000
ASUS44 KMEG 271710
RWRTN
TENNESSEE HOURLY STATE WEATHER ROUNDUP
NATIONAL WEATHER SERVICE MEMPHIS TN
1200 PM CDT MON JUL 27 2015

TNZ002-004-019-021-049-052-054-088>092-271800-
WEST TENNESSEE

CITY           SKY/WX    TMP DP  RH WIND       PRES   REMARKS
MEMPHIS INTL   MOSUNNY   93  75  55 CALM      29.98F HX 104
NWS MEMPHIS      N/A     94 N/A N/A MISG        N/A
JACKSON        MOSUNNY   93  75  55 SW6       29.99F HX 104
DYERSBURG        N/A    N/A N/A N/A MISG        N/A
PARIS          SUNNY     90  73  58 CALM      30.00F HX  98
LEXINGTON      MOSUNNY   91  75  59 VRB3      30.00S HX 102
$$

TNZ008-025-027-028-033-062-065-066-271800-
NORTH MIDDLE TENNESSEE

CITY           SKY/WX    TMP DP  RH WIND       PRES   REMARKS
NASHVILLE      MOSUNNY   91  72  53 VRB3      30.01F HX  98
CLARKSVILLE    MOSUNNY   88  73  61 SE3       29.98F HX  95
SMYRNA         MOSUNNY   95  74  50 VRB3      30.01F HX 105
COOKEVILLE     SUNNY     91  73  55 N3        30.03F HX 100
CROSSVILLE     MOSUNNY   85  68  56 CALM      30.09F
$$

TNZ061-075-076-078-094-096-097-271800-
SOUTH MIDDLE TENNESSEE

CITY           SKY/WX    TMP DP  RH WIND       PRES   REMARKS
FAYETTEVILLE     N/A     90  70  51 VRB3      30.03F HX  95
TULLAHOMA      MOSUNNY   88  72  58 CALM      30.05F HX  94
WINCHESTER     SUNNY     90  72  55 VRB3      30.04S HX  96
MCMINNVILLE    MOSUNNY   90  75  62 CALM      30.04F HX 100
COLUMBIA       SUNNY     91  73  55 VRB5      30.01S HX 100
SHELBYVILLE    PTSUNNY   91  75  59 CALM        N/A  HX 102
$$

TNZ017-018-042-046-047-271800-
NORTHEAST TENNESSEE

CITY           SKY/WX    TMP DP  RH WIND       PRES   REMARKS
TRI CITIES     CLOUDY    84  71  65 VRB3      30.06F
ELIZABETHTON   MOSUNNY   82  72  69 NW3       30.07S
$$

TNZ012-013-036-069-073-074-271800-
CENTRAL EAST TENNESSEE

CITY           SKY/WX    TMP DP  RH WIND       PRES   REMARKS
KNOXVILLE      PTSUNNY   88  71  57 N3        30.03F HX  94
OAK RIDGE      CLOUDY    88  72  58 S6        30.04F HX  94
GATLINBURG       N/A     90  70  51 W3        30.03S HX  95
MORRISTOWN     SUNNY     88  68  51 VRB3      30.06F HX  91
$$

TNZ083-085-099-271800-
SOUTHEAST TENNESSEE

CITY           SKY/WX    TMP DP  RH WIND       PRES   REMARKS
CHATTANOOGA    PTSUNNY   90  72  55 SE5       30.01F HX  97
$$

SKY/WX REPORTED AS FAIR MEANS FEW OR NO CLOUDS BELOW
12 THOUSAND FEET.




USA.gov is the U.S. government's official web portal to all federal, state and local government web resources and services.